Regional Weather Roundup
Issued by NWS

Home | Current Version | Previous Version | Graphics & Text | Print | Product List | Glossary On
Versions: 1 2 3 4 5 6 7 8 9 10 11 12 13 14 15 16 17 18 19 20 21 22 23 24 25 26 27 28 29 30 31 32 33 34 35 36 37 38 39 40 41 42 43 44 45 46 47 48 49 50
000
ASUS45 KTFX 170104
RWRMT
MONTANA HOURLY WEATHER ROUNDUP
NATIONAL WEATHER SERVICE GREAT FALLS MT
704 PM MDT TUE SEP 16 2014

NOTE: "FAIR" INDICATES FEW OR NO CLOUDS BELOW 12000 FEET WITH NO
SIGNIFICANT WEATHER AND/OR OBSTRUCTIONS TO VISIBILITY.

* THESE STATIONS ARE NOT UNDER NWS QUALITY CONTROL. THEY DO NOT
   REPORT WEATHER SUCH AS PRECIPITATION OR FOG.

MTZ001>007-043-170200-
WEST OF THE DIVIDE
CITY           SKY/WX    TMP DP  RH WIND       PRES   REMARKS
KALISPELL      CLOUDY    70  43  38 SW5       29.90S
MISSOULA       CLOUDY    73  45  37 NW5       29.91S
BUTTE          PTCLDY    73  39  29 SW3       30.05F
MULLAN PASS    CLOUDY    66  37  34 SW3       30.07F
* ESSEX        N/A       69  46  44 W1         N/A
* LINCOLN      N/A       77  39  26 W4         N/A
* LOOKOUT PASS N/A       71  43  37 S1         N/A
* POLSON       N/A       68  45  44 E2         N/A
* RONAN APT    CLOUDY    72  39  30 N/A        N/A
* SEELEY LAKE  N/A       78  37  23 W2         N/A
* THOMP F APT  CLOUDY    72  34  25 S4G12      N/A
$$

MTZ008-052>055-170200-
SOUTHWEST MONTANA
CITY           SKY/WX    TMP DP  RH WIND       PRES   REMARKS
BOZEMAN        CLOUDY    72  46  40 CALM      30.00S
DILLON         PTCLDY    72  43  35 SE17      30.04S
W YELLOWSTONE  PTCLDY    64  41  43 CALM      30.15S
* THREE FORKS  CLOUDY    73  57  57 N/A        N/A
* BOULDER HILL N/A       72  38  29 S2G9       N/A
* MONIDA PASS  N/A       62  46  56 VRB4G10    N/A
* RAYNOLDS PAS N/A       69  47  46 SE8        N/A
* WHITEHALL    N/A       79  45  30 SW4G9      N/A
* WISE RIVER   N/A       75  40  28 W7G15      N/A
$$

MTZ009>010-012-014-046-048-049-054-170200-
EAST SLOPES AND CENTRAL MONTANA
CITY           SKY/WX    TMP DP  RH WIND       PRES   REMARKS
CUT BANK       MOCLDY    72  39  30 W9        29.91S
GREAT FALLS    CLOUDY    70  46  42 S5        29.90F
HELENA         CLOUDY    73  46  38 W7        29.92F
MALMSTROM AFB  CLOUDY    72  50  46 SE6       29.91F
* CONRAD       CLOUDY    75  52  45 N/A        N/A
* EAST GLACIER N/A       71  38  30 W6         N/A
* MONARCH      N/A       69  34  28 S4         N/A
* PENDROY      N/A       70  40  34 SW2        N/A
* ROGERS PASS  N/A       67  47  49 NW3        N/A
* SAINT MARY   N/A       75  29  18 SW5G12     N/A
* SWEET GRASS  N/A       76  34  22 N6         N/A
$$

MTZ011-013-016-021-035-040-045-047-050-051-170200-
NORTH CENTRAL MONTANA
CITY           SKY/WX    TMP DP  RH WIND       PRES   REMARKS
HAVRE          PTCLDY    73  45  37 E5        29.87S
LEWISTOWN      CLOUDY    70  52  53 E6        29.97S
* CHESTER      N/A       75  37  25 S3         N/A
* DENTON       N/A       72  41  33 SE3        N/A
* GEYSER       N/A       70  48  46 S3         N/A
* JUDITH GAP   N/A       70  41  35 W1G6       N/A
* LOMA         N/A       75  45  34 NE6        N/A
$$

MTZ017>020-022>027-061-062-170200-
NORTHEAST MONTANA
CITY           SKY/WX    TMP DP  RH WIND       PRES   REMARKS
GLASGOW        PTCLDY    70  43  38 SE7       29.89S
JORDAN         CLOUDY    72  52  49 E5        29.90S
SIDNEY         CLEAR     66  41  40 CALM      29.91F VSB 1 1/4
WOLF POINT     CLEAR     72  43  35 CALM      29.89S
* BEAVER HILL  N/A       70  43  38 N/A        N/A
* CIRCLE       N/A       75  46  36 N/A        N/A
* LINDSAY DVD  N/A       63  43  48 NW4        N/A
* NAVAJO       N/A       69  38  32 S1         N/A
* SACO         N/A       75  48  39 E4         N/A
$$

MTZ028>042-056>058-170200-
SOUTHCENTRAL AND SOUTHEAST MONTANA
CITY           SKY/WX    TMP DP  RH WIND       PRES   REMARKS
BAKER          MOCLDY    64  48  56 N3        29.95S
BILLINGS       CLOUDY    81  36  20 SW5       29.94S
LIVINGSTON     CLOUDY    79  36  21 SW24G29   29.96F
MILES CITY     MOCLDY    73  45  37 E5        29.91S
* LAUREL APT   CLOUDY    79  39  24 N/A        N/A
* ROUNDUP APT  CLOUDY    73  46  38 N/A        N/A
* ALZADA       N/A       71  41  34 VRB5       N/A
* HYSHAM       N/A       71  46  41 SE2        N/A
* LAME DEER    N/A       72  44  37 E4         N/A
* REED POINT   N/A       74  41  31 E2         N/A
* ROSCOE HILL  N/A       71  30  22 S11G16     N/A
$$

REGIONAL REPORTS...DAKOTAS
CITY           SKY/WX    TMP DP  RH WIND       PRES   REMARKS
WILLISTON      CLEAR     64  39  40 SW3       29.91F
DICKINSON      PTCLDY    61  46  58 NE6       29.92S
BEACH          HAZE      64  45  50 NE5       29.94S
CROSBY         CLEAR     61  45  56 S5        29.91S
TIOGA          CLEAR     59  39  48 S8        29.95S
WATFORD CITY   CLEAR     64  36  35 E3        29.90S
BISMARCK       CLEAR     66  46  49 NE5       29.91F
GRAND FORKS    FAIR      61  46  58 S6        29.91F
FARGO          FAIR      61  46  58 SE9       29.94S
BUFFALO SD     MOCLDY    72  48  43 NW5       29.88S
RAPID CITY     PTCLDY    72  48  43 CALM      29.95S
$$

REGIONAL REPORTS...WYOMING/IDAHO/WASHINGTON
CITY           SKY/WX    TMP DP  RH WIND       PRES   REMARKS
GILLETTE       PTCLDY    70  45  41 CALM      30.01R
SHERIDAN       PTCLDY    64  46  52 CALM      29.99S
CODY           PTCLDY    72  45  38 CALM      30.07R
YELLOWSTONE LA PTCLDY    57  43  60 CALM      30.26F
SALMON         PTCLDY    70  48  46 CALM      29.95F
MULLAN PASS    CLOUDY    66  37  34 SW3       30.07S
SAND POINT     CLOUDY    68  50  53 CALM      29.84F
SPOKANE        CLOUDY    82  41  23 E3        29.83S

$$



USA.gov is the U.S. government's official web portal to all federal, state and local government web resources and services.